When you browse on this site, cookies collect data to enhance your experience and personalize the content and advertising you see.
Visit our Privacy Policy to learn more. By continuing to use the site, you agree to this use of cookies and data.
  • In United Kingdom
  • List of Countries
  • For 7 days
  • Water Temperature
  • Weather Map
  • Weather Widgets
  • user-avatar
    Login

    Hourly Weather Kalocsa

    Today, 17 September, Tuesday

    Time Temperature Precipitation Wind Pressure Humidity
    00:00 +22°C° 0.1 mm 1 mps 753 mmHg 62%
    01:00 +21°C° 0.1 mm 1 mps 753 mmHg 63%
    02:00 +21°C° 0 mm 1 mps 753 mmHg 64%
    03:00 +21°C° 0 mm 1 mps 753 mmHg 64%
    04:00 +21°C° 0 mm 1 mps 752 mmHg 65%
    05:00 +21°C° 0 mm 1 mps 753 mmHg 63%
    06:00 +22°C° 0 mm 1 mps 753 mmHg 62%
    07:00 +22°C° 0 mm 1 mps 753 mmHg 61%
    08:00 +23°C° 0 mm 1 mps 753 mmHg 58%
    09:00 +24°C° 0 mm 2 mps 753 mmHg 55%
    10:00 +25°C° 0 mm 2 mps 753 mmHg 52%
    11:00 +25°C° 0 mm 2 mps 753 mmHg 50%
    12:00 +26°C° 0 mm 2 mps 752 mmHg 47%
    13:00 +27°C° 0 mm 2 mps 752 mmHg 44%
    14:00 +27°C° 0 mm 2 mps 752 mmHg 44%
    15:00 +27°C° 0 mm 2 mps 751 mmHg 44%
    16:00 +27°C° 0 mm 2 mps 751 mmHg 45%
    17:00 +25°C° 0 mm 2 mps 751 mmHg 50%
    18:00 +24°C° 0 mm 2 mps 751 mmHg 56%
    19:00 +21°C° 0 mm 2 mps 751 mmHg 61%
    20:00 +21°C° 0 mm 2 mps 751 mmHg 61%
    21:00 +20°C° 0 mm 2 mps 751 mmHg 61%
    22:00 +20°C° 0 mm 2 mps 751 mmHg 61%
    23:00 +20°C° 0 mm 3 mps 752 mmHg 61%

    Tomorrow, 18 September, Wednesday

    Time Temperature Precipitation Wind Pressure Humidity
    00:00 +19°C° 0 mm 4 mps 752 mmHg 61%
    01:00 +19°C° 0 mm 5 mps 753 mmHg 62%
    02:00 +17°C° 0.1 mm 5 mps 753 mmHg 59%
    03:00 +15°C° 0.1 mm 6 mps 754 mmHg 57%
    04:00 +14°C° 0.1 mm 6 mps 755 mmHg 55%
    05:00 +13°C° 0 mm 6 mps 755 mmHg 52%
    06:00 +13°C° 0 mm 6 mps 756 mmHg 49%
    07:00 +11°C° 0 mm 6 mps 757 mmHg 46%
    08:00 +13°C° 0 mm 6 mps 758 mmHg 42%
    09:00 +14°C° 0 mm 5 mps 758 mmHg 37%
    10:00 +15°C° 0 mm 5 mps 759 mmHg 33%
    11:00 +16°C° 0 mm 5 mps 759 mmHg 30%
    12:00 +18°C° 0 mm 4 mps 759 mmHg 27%
    13:00 +19°C° 0 mm 4 mps 759 mmHg 24%
    14:00 +19°C° 0 mm 4 mps 759 mmHg 26%
    15:00 +19°C° 0 mm 4 mps 758 mmHg 28%
    16:00 +18°C° 0 mm 4 mps 758 mmHg 30%
    17:00 +15°C° 0 mm 4 mps 758 mmHg 38%
    18:00 +13°C° 0 mm 3 mps 759 mmHg 47%
    19:00 +11°C° 0 mm 3 mps 759 mmHg 56%
    20:00 +10°C° 0 mm 3 mps 759 mmHg 61%
    21:00 +10°C° 0 mm 3 mps 759 mmHg 67%
    22:00 +9°C° 0 mm 3 mps 759 mmHg 73%
    23:00 +9°C° 0 mm 3 mps 759 mmHg 72%

    Day after tomorrow, 19 September, Thursday

    Time Temperature Precipitation Wind Pressure Humidity
    00:00 +9°C° 0 mm 3 mps 759 mmHg 71%
    01:00 +9°C° 0 mm 2 mps 759 mmHg 70%
    02:00 +8°C° 0 mm 2 mps 759 mmHg 68%
    03:00 +8°C° 0 mm 2 mps 759 mmHg 66%
    04:00 +8°C° 0 mm 2 mps 759 mmHg 64%
    05:00 +9°C° 0 mm 3 mps 759 mmHg 61%
    06:00 +10°C° 0 mm 3 mps 760 mmHg 57%
    07:00 +11°C° 0 mm 4 mps 760 mmHg 54%
    08:00 +12°C° 0 mm 4 mps 760 mmHg 49%
    09:00 +14°C° 0 mm 5 mps 760 mmHg 43%
    10:00 +15°C° 0 mm 6 mps 761 mmHg 37%
    11:00 +16°C° 0 mm 6 mps 760 mmHg 36%
    12:00 +17°C° 0 mm 6 mps 760 mmHg 34%
    13:00 +17°C° 0 mm 6 mps 760 mmHg 32%
    14:00 +17°C° 0 mm 6 mps 759 mmHg 32%
    15:00 +17°C° 0 mm 5 mps 759 mmHg 32%
    16:00 +17°C° 0 mm 5 mps 759 mmHg 32%
    17:00 +15°C° 0 mm 5 mps 760 mmHg 37%
    18:00 +13°C° 0 mm 4 mps 760 mmHg 43%
    19:00 +11°C° 0 mm 3 mps 760 mmHg 48%
    20:00 +11°C° 0 mm 3 mps 761 mmHg 51%
    21:00 +10°C° 0 mm 3 mps 761 mmHg 54%
    22:00 +9°C° 0 mm 3 mps 761 mmHg 57%
    23:00 +9°C° 0 mm 3 mps 761 mmHg 59%

    20 September, Friday

    Time Temperature Precipitation Wind Pressure Humidity
    00:00 +9°C° 0 mm 3 mps 761 mmHg 60%
    01:00 +8°C° 0 mm 2 mps 761 mmHg 62%
    02:00 +8°C° 0 mm 2 mps 761 mmHg 65%
    03:00 +7°C° 0 mm 2 mps 761 mmHg 68%
    04:00 +7°C° 0 mm 2 mps 761 mmHg 72%
    05:00 +8°C° 0 mm 2 mps 762 mmHg 70%
    06:00 +8°C° 0 mm 2 mps 762 mmHg 68%
    07:00 +9°C° 0 mm 2 mps 762 mmHg 66%
    08:00 +12°C° 0 mm 2 mps 762 mmHg 58%
    09:00 +13°C° 0 mm 3 mps 762 mmHg 50%
    10:00 +16°C° 0 mm 3 mps 763 mmHg 42%
    11:00 +17°C° 0 mm 3 mps 762 mmHg 38%
    12:00 +18°C° 0 mm 3 mps 762 mmHg 33%
    13:00 +19°C° 0 mm 3 mps 762 mmHg 29%
    14:00 +19°C° 0 mm 3 mps 761 mmHg 28%
    15:00 +19°C° 0 mm 3 mps 761 mmHg 27%
    16:00 +19°C° 0 mm 3 mps 761 mmHg 26%
    17:00 +17°C° 0 mm 3 mps 761 mmHg 30%
    18:00 +15°C° 0 mm 2 mps 761 mmHg 34%
    19:00 +13°C° 0 mm 2 mps 762 mmHg 38%
    20:00 +12°C° 0 mm 2 mps 762 mmHg 41%
    21:00 +12°C° 0 mm 2 mps 762 mmHg 43%
    22:00 +10°C° 0 mm 2 mps 762 mmHg 46%
    23:00 +11°C° 0 mm 1 mps 763 mmHg 48%

    21 September, Saturday

    Time Temperature Precipitation Wind Pressure Humidity
    00:00 +10°C° 0 mm 1 mps 763 mmHg 50%
    01:00 +10°C° 0 mm 1 mps 763 mmHg 53%
    02:00 +10°C° 0 mm 1 mps 763 mmHg 53%
    03:00 +9°C° 0 mm 1 mps 763 mmHg 54%
    04:00 +9°C° 0 mm 1 mps 763 mmHg 54%
    05:00 +10°C° 0 mm 1 mps 763 mmHg 53%
    06:00 +10°C° 0 mm 1 mps 763 mmHg 51%
    07:00 +10°C° 0 mm 2 mps 763 mmHg 49%
    08:00 +13°C° 0 mm 2 mps 764 mmHg 43%
    09:00 +16°C° 0 mm 2 mps 764 mmHg 38%
    10:00 +18°C° 0 mm 3 mps 764 mmHg 32%
    11:00 +19°C° 0 mm 3 mps 764 mmHg 30%
    12:00 +19°C° 0 mm 3 mps 763 mmHg 29%
    13:00 +20°C° 0 mm 2 mps 763 mmHg 27%
    14:00 +20°C° 0 mm 2 mps 763 mmHg 27%
    15:00 +20°C° 0 mm 2 mps 762 mmHg 27%
    16:00 +20°C° 0 mm 2 mps 762 mmHg 27%
    17:00 +18°C° 0 mm 2 mps 762 mmHg 32%
    18:00 +16°C° 0 mm 2 mps 762 mmHg 37%
    19:00 +14°C° 0 mm 2 mps 762 mmHg 41%
    20:00 +13°C° 0 mm 2 mps 762 mmHg 43%
    21:00 +13°C° 0 mm 2 mps 762 mmHg 45%
    22:00 +12°C° 0 mm 2 mps 763 mmHg 47%
    23:00 +12°C° 0 mm 2 mps 763 mmHg 48%

    22 September, Sunday

    Time Temperature Precipitation Wind Pressure Humidity
    00:00 +10°C° 0 mm 2 mps 763 mmHg 50%
    01:00 +10°C° 0 mm 2 mps 763 mmHg 51%
    02:00 +10°C° 0 mm 2 mps 763 mmHg 51%
    03:00 +9°C° 0 mm 2 mps 762 mmHg 51%
    04:00 +9°C° 0 mm 2 mps 762 mmHg 51%
    05:00 +10°C° 0 mm 2 mps 763 mmHg 49%
    06:00 +10°C° 0 mm 2 mps 763 mmHg 46%
    07:00 +12°C° 0 mm 2 mps 763 mmHg 44%
    08:00 +14°C° 0 mm 2 mps 763 mmHg 39%
    09:00 +17°C° 0 mm 2 mps 763 mmHg 34%
    10:00 +19°C° 0 mm 3 mps 763 mmHg 28%
    11:00 +20°C° 0 mm 3 mps 763 mmHg 26%
    12:00 +21°C° 0 mm 3 mps 762 mmHg 24%
    13:00 +22°C° 0 mm 3 mps 762 mmHg 22%
    14:00 +22°C° 0 mm 3 mps 761 mmHg 22%
    15:00 +24°C° 0 mm 3 mps 761 mmHg 23%
    16:00 +24°C° 0 mm 3 mps 761 mmHg 23%
    17:00 +21°C° 0 mm 3 mps 761 mmHg 26%
    18:00 +18°C° 0 mm 2 mps 761 mmHg 29%
    19:00 +16°C° 0 mm 2 mps 761 mmHg 32%
    20:00 +16°C° 0 mm 2 mps 761 mmHg 33%
    21:00 +14°C° 0 mm 3 mps 761 mmHg 33%
    22:00 +13°C° 0 mm 3 mps 761 mmHg 34%
    23:00 +13°C° 0 mm 3 mps 761 mmHg 34%
    Show more